Flag for Canada Weather past 2 weeks in Burlington, Ontario, Canada

Now
66 °F

Mild.


Feels Like: 66 °F
Forecast: 64 / 74 °F
Wind: 5 mph from East

Location: Burlington Piers

Current Time: Aug 1, 2014 at 10:03:15 PM

Latest Report: Aug 1, 2014 at 9:00 PM


Visibility: N/A

Pressure: 30.11 "Hg

Humidity: 82%

Dew point: 60 °F

Location of BurlingtonLocation

Historic Weather in Burlington — Graph

°F

Burlington temperature yesterday

Maximum temperature yesterday: 76 °F (at 5:00 PM)
Minimum temperature yesterday: 61 °F (at 6:00 AM)
Average temperature yesterday: 68 °F

Past Weeks' High & Low Weather Summary

 TemperatureHumidityPressure
High83 °F (Jul 22, 7:00 PM)100% (Jul 21, 1:00 AM)30.24 "Hg (Jul 21, 1:00 AM)
Low53 °F (Jul 18, 6:00 AM)39% (Jul 17, 8:00 PM)29.56 "Hg (Jul 27, 9:00 PM)
Average67 °F72%29.98 "Hg
* Reported Jul 17 8:00 PM — Aug 1 8:00 PM, Burlington, Weather by CustomWeather, © 2014

Note: Actual official high and low records may vary slightly from our data, if they occured in-between our weather recording intervals... More about our weather records

Advertising

Burlington weather history for previous 24 hours

 ConditionsComfort  
Time TempWeatherWind HumidityBarometerVisibility
8:00 PM
Aug 1
67 °FMild.12 mph80%30.11 "HgN/A
7:00 PM70 °FMild.16 mph68%30.09 "HgN/A
6:00 PM81 °FWarm.7 mph50%30.06 "HgN/A
5:00 PM81 °FWarm.9 mph50%30.04 "HgN/A
4:00 PM81 °FWarm.10 mph48%30.05 "HgN/A
3:00 PM78 °FWarm.3 mph55%30.07 "HgN/A
2:00 PM74 °FMild.5 mph66%30.08 "HgN/A
1:00 PM74 °FMild.7 mph64%30.09 "HgN/A
12:00 PM74 °FMild.1 mph62%30.09 "HgN/A
11:00 AM74 °FMild.3 mph60%30.09 "HgN/A
10:00 AM71 °FMild.5 mph74%30.09 "HgN/A
9:00 AM67 °FMild.5 mph79%30.10 "HgN/A
8:00 AM66 °FMild.3 mph80%30.09 "HgN/A
7:00 AM65 °FMild.3 mph74%30.07 "HgN/A
6:00 AM65 °FMild.2 mph79%30.05 "HgN/A
5:00 AM65 °FMild.3 mph80%30.05 "HgN/A
4:00 AM65 °FMild.2 mph80%30.04 "HgN/A
3:00 AM66 °FMild.6 mph76%30.04 "HgN/A
2:00 AM68 °FMild.5 mph69%30.04 "HgN/A
1:00 AM69 °FMild.3 mph65%30.04 "HgN/A
12:00 AM69 °FMild.5 mph66%30.03 "HgN/A
11:00 PM
Jul 31
70 °FMild.7 mph58%30.04 "HgN/A
10:00 PM71 °FMild.7 mph53%30.04 "HgN/A
Weather by CustomWeather, © 2014

See weather overviewHow to use our weather pages